Time,TemperatureF,DewpointF,PressureIn,WindDirection,WindDirectionDegrees,WindSpeedMPH,WindSpeedGustMPH,Humidity,HourlyPrecipIn,Conditions,Clouds,dailyrainin,SoftwareType,DateUTC
2017-04-24 00:28:00,48.0,41.0,-100.00,NNE,31,2.0,-999.0,77,-99.99,,,-99.99,,2017-04-24 07:28:00,
2017-04-24 01:38:00,46.0,41.0,-100.00,ESE,121,1.0,5.0,82,-99.99,,,-99.99,,2017-04-24 08:38:00,
2017-04-24 02:28:00,45.0,41.0,-100.00,NNE,22,4.0,5.0,86,-99.99,,,-99.99,,2017-04-24 09:28:00,
2017-04-24 03:05:00,45.0,41.0,-100.00,NNE,22,4.0,5.0,86,-99.99,,,-99.99,,2017-04-24 10:05:00,
2017-04-24 03:07:00,46.0,43.0,-100.00,NNE,24,2.0,6.0,88,-99.99,,,-99.99,,2017-04-24 10:07:00,
2017-04-24 06:38:00,53.0,41.0,-100.00,West,275,2.0,15.0,64,-99.99,,,-99.99,,2017-04-24 13:38:00,
2017-04-24 07:28:00,53.0,40.0,-100.00,NNW,341,8.0,20.0,60,-99.99,,,-99.99,,2017-04-24 14:28:00,
2017-04-24 08:28:00,54.0,41.0,-100.00,NNW,339,4.0,14.0,61,-99.99,,,-99.99,,2017-04-24 15:28:00,
2017-04-24 10:05:00,57.0,41.0,-100.00,NNW,339,6.0,11.0,55,-99.99,,,-99.99,,2017-04-24 17:05:00,
2017-04-24 11:59:00,59.0,43.0,-100.00,WNW,294,9.0,16.0,55,-99.99,,,-99.99,,2017-04-24 18:59:00,
2017-04-24 12:39:00,58.0,44.0,-100.00,West,266,7.0,18.0,60,-99.99,,,-99.99,,2017-04-24 19:39:00,
2017-04-24 13:28:00,61.0,44.0,-100.00,WNW,299,5.0,14.0,54,-99.99,,,-99.99,,2017-04-24 20:28:00,
2017-04-24 13:48:00,61.0,44.0,-100.00,WNW,299,5.0,14.0,54,-99.99,,,-99.99,,2017-04-24 20:48:00,
2017-04-24 14:04:00,61.0,44.0,-100.00,WNW,299,5.0,14.0,54,-99.99,,,-99.99,,2017-04-24 21:04:00,
2017-04-24 14:28:00,63.0,45.0,-100.00,WNW,287,6.0,18.0,51,-99.99,,,-99.99,,2017-04-24 21:28:00,
2017-04-24 15:28:00,61.0,46.0,-100.00,WNW,290,5.0,20.0,58,-99.99,,,-99.99,,2017-04-24 22:28:00,
2017-04-24 15:49:00,61.0,46.0,-100.00,WNW,290,5.0,20.0,58,-99.99,,,-99.99,,2017-04-24 22:49:00,
2017-04-24 16:38:00,59.0,43.0,-100.00,NNW,336,7.0,-999.0,55,-99.99,,,-99.99,,2017-04-24 23:38:00,
2017-04-24 18:28:00,56.0,46.0,-100.00,NW,326,7.0,17.0,69,-99.99,,,-99.99,,2017-04-25 01:28:00,
2017-04-24 18:48:00,56.0,46.0,-100.00,NW,326,7.0,17.0,69,-99.99,,,-99.99,,2017-04-25 01:48:00,
2017-04-24 19:28:00,54.0,45.0,-100.00,NW,306,7.0,-999.0,72,-99.99,,,-99.99,,2017-04-25 02:28:00,